This is the latest recevied weather packets stored in our database for station/object WD9U. If no packets are shown the sender has not sent any weather packets the latest 10 day(s).
| Time | Temp. | Humidity | Pressure | Rain* | Wind** | Luminosity | Snow |
|---|---|---|---|---|---|---|---|
| 1777907232 | 12.78° C | 56% | - | 0 mm | - | - | - |
| 1777907114 | 12.78° C | 56% | - | 0 mm | - | - | - |
| 1777906872 | 12.78° C | 58% | - | 0 mm | - | - | - |
| 1777906512 | 12.78° C | 57% | - | 0 mm | - | - | - |
| 1777906152 | 12.22° C | 59% | - | 0 mm | - | - | - |
| 1777905914 | 12.22° C | 59% | - | 0 mm | - | - | - |
| 1777905792 | 12.22° C | 59% | - | 0 mm | - | - | - |
| 1777905432 | 12.22° C | 60% | - | 0 mm | - | - | - |
| 1777905072 | 12.22° C | 60% | - | 0 mm | - | - | - |
| 1777904712 | 12.22° C | 61% | - | 0 mm | - | - | - |
| 1777904352 | 11.67° C | 63% | - | 0 mm | - | - | - |
| 1777903992 | 11.67° C | 65% | - | 0 mm | - | - | - |
| 1777903632 | 11.67° C | 65% | - | 0 mm | - | - | - |
| 1777903514 | 11.67° C | 65% | - | 0 mm | - | - | - |
| 1777903272 | 11.67° C | 65% | - | 0 mm | - | - | - |
| 1777902912 | 11.67° C | 66% | - | 0 mm | - | - | - |
| 1777902551 | 11.11° C | 67% | - | 0 mm | - | - | - |
| 1777902313 | 11.11° C | 67% | - | 0 mm | - | - | - |
| 1777902191 | 11.11° C | 68% | - | 0 mm | - | - | - |
| 1777901831 | 11.11° C | 67% | - | 0 mm | - | - | - |
| 1777901471 | 11.11° C | 66% | - | 0 mm | - | - | - |
| 1777901111 | 11.67° C | 66% | - | 0 mm | - | - | - |
| 1777900751 | 11.67° C | 63% | - | 0 mm | - | - | - |
| 1777900391 | 12.22° C | 61% | - | 0 mm | - | - | - |
| 1777900030 | 12.22° C | 58% | - | 0 mm | - | - | - |
* Rain latest hour (hover to see other rain measurements)
** Current wind speed in m/s (hover to see current wind gust speed)